Location: Emerald Isle
(34.6779°N, 76.9508°W)
Time: 06:06:01
(UTC-04:00)

ISS - Visible Passes

Search period start: 23 July 2018 00:00
Search period end: 02 August 2018 00:00
Orbit: 402 x 408 km, 51.6° (Epoch: 23 July)

Date Brightness Start Highest point End Pass type
(mag) Time Alt. Az. Time Alt. Az. Time Alt. Az.
23 Jul -0.8 21:20:56 10° WNW 21:23:19 18° NNW 21:25:42 10° NNE visible
25 Jul -0.2 21:15:37 10° NNW 21:15:53 10° NNW 21:16:09 10° NNW visible
01 Aug -0.4 23:14:07 10° NNW 23:14:31 12° NNW 23:14:31 12° NNW visible
